[[{"header":{"parameterUnit":"m.s-1","parameterCategory":1,"la1":30.2992,"la2":30.254,"lo1":-89.0895,"lo2":-89.0443,"dy":0.0025,"dx":0.0025,"nx":19,"ny":19,"refTime":"2026-04-21T21:00:00:Z","depth":0,"parameterNumber":2,"parameterNumberName":"U-component_of_WINDS"},"data":[0,0,0,-2.7483,-2.7483,-2.7485,-2.7485,-2.7497,-2.7497,0,0,0,0,0,0,0,0,0,0,0,-2.7486,-2.7487,-2.7483,-2.7483,-2.7485,-2.7485,-2.7497,-2.7497,0,0,0,0,0,0,0,0,0,0,0,-2.7486,-2.7486,-2.7487,-2.7483,-2.7485,-2.7485,-2.7497,-2.7493,0,0,0,0,0,0,0,0,0,0,-2.7489,-2.7496,-2.7486,-2.7487,-2.7483,-2.7485,-2.7485,-2.7492,-2.7493,-2.75,0,-2.7506,0,-2.7502,-2.7499,-2.7499,0,0,0,-2.748,-2.7495,-2.7492,-2.7487,-2.7483,-2.7485,-2.7483,-2.7493,-2.7493,-2.7501,-2.7506,-2.7506,-2.7502,-2.7499,-2.7499,-2.7548,-2.7549,0,0,-2.748,-2.7489,-2.7492,-2.7493,-2.7491,-2.7483,-2.7483,-2.7493,-2.7499,-2.7506,-2.7507,-2.7502,-2.7499,-2.7499,-2.7548,-2.7548,0,0,0,-2.7482,-2.7489,-2.7485,-2.7493,-2.7492,-2.7483,-2.7483,-2.7499,-2.7497,-2.7507,-2.7503,-2.7499,-2.7499,-2.7548,-2.7548,-2.7573,0,0,0,-2.7482,-2.749,-2.7486,-2.7491,-2.7492,-2.7495,-2.7489,-2.7496,-2.7497,-2.7503,-2.7499,-2.75,-2.7547,-2.7548,-2.7572,-2.7583,0,0,0,-2.7485,-2.749,-2.7492,-2.7491,-2.7492,-2.7494,-2.7493,-2.7496,-2.7495,-2.7499,-2.75,-2.7547,-2.7548,-2.757,-2.7581,-2.7599,0,0,0,-2.7491,-2.7513,-2.7492,-2.7516,-2.7492,-2.751,-2.7493,-2.7506,-2.7513,-2.7499,-2.7547,-2.7548,-2.757,-2.7579,-2.7597,-2.7614,-2.7622,0,0,-2.7524,-2.7518,-2.7531,-2.7513,-2.7536,-2.7509,-2.7538,-2.7536,-2.7529,-2.7543,-2.7544,-2.7572,-2.758,-2.7598,-2.7668,-2.7674,0,0,0,-2.7545,-2.7554,-2.7559,-2.7566,-2.7565,-2.7567,-2.756,-2.756,-2.7572,-2.7537,-2.7584,-2.7589,-2.7599,-2.7607,-2.7612,-2.7621,-2.7552,-2.7552,-2.7552,-2.7601,-2.7592,-2.7615,-2.7608,-2.7615,-2.761,-2.7616,-2.7615,-2.7603,-2.7615,-2.7618,-2.7661,-2.7671,-2.7675,-2.7684,-2.7628,-2.7628,-2.7628,-2.7628,-2.7648,-2.766,-2.7647,-2.7664,-2.7656,-2.7671,-2.767,-2.7662,-2.7676,-2.7657,-2.7666,-2.7644,-2.7682,-2.769,-2.763,-2.763,-2.763,-2.7629,-2.7629,-2.7682,-2.7687,-2.7688,-2.7699,-2.771,-2.7703,-2.7718,-2.7711,-2.7704,-2.7713,-2.7716,-2.7716,-2.7714,-2.7716,-2.7716,-2.7716,-2.7716,-2.7716,-2.7716,-2.7716,-2.7717,-2.7729,-2.7734,-2.774,-2.7746,-2.7746,-2.7751,-2.7756,-2.775,-2.775,-2.7738,-2.7688,-2.7674,-2.7718,-2.7718,-2.7718,-2.7718,-2.7717,-2.7763,-2.7752,-2.7771,-2.7777,-2.7785,-2.7797,-2.779,-2.7804,-2.7808,-2.7817,-2.7805,-2.7769,-2.7762,-2.7758,-2.7746,-2.7806,-2.7806,-2.7806,-2.7806,-2.779,-2.7788,-2.7807,-2.7817,-2.7827,-2.7823,-2.7849,-2.7852,-2.7852,-2.7855,-2.7847,-2.7832,-2.7828,-2.7823,-2.7818,-2.7807,-2.7881,-2.7881,-2.7881,-2.7819,-2.7817,-2.7838,-2.7838,-2.7845,-2.7852,-2.7877,-2.7892,-2.7891,-2.7884,-2.7858,-2.7855,-2.7832,-2.7824,-2.7812,-2.7804,-2.7784,0,0]},{"header":{"parameterUnit":"m.s-1","parameterCategory":1,"la1":30.2992,"la2":30.254,"lo1":-89.0895,"lo2":-89.0443,"dy":0.0025,"dx":0.0025,"nx":19,"ny":19,"refTime":"2026-04-21T21:00:00:Z","depth":0,"parameterNumber":3,"parameterNumberName":"V-component_of_WINDS"},"data":[0,0,0,3.2064,3.206,3.1883,3.1883,3.1657,3.1655,0,0,0,0,0,0,0,0,0,0,0,3.2121,3.212,3.2064,3.206,3.1883,3.1883,3.1658,3.1655,0,0,0,0,0,0,0,0,0,0,0,3.2122,3.212,3.2119,3.2059,3.1884,3.1882,3.1658,3.179,0,0,0,0,0,0,0,0,0,0,3.1961,3.202,3.2121,3.2119,3.2058,3.1884,3.1882,3.1796,3.1782,3.1739,0,3.1707,0,3.1678,3.1641,3.164,0,0,0,3.2054,3.2032,3.1981,3.2118,3.2057,3.1884,3.1961,3.1788,3.1772,3.172,3.1704,3.1695,3.1674,3.1639,3.1638,3.1419,3.1419,0,0,3.2064,3.2091,3.1992,3.197,3.2003,3.1967,3.1956,3.1778,3.176,3.1703,3.169,3.1671,3.1638,3.1636,3.142,3.1419,0,0,0,3.2096,3.2098,3.205,3.198,3.1948,3.1962,3.1949,3.1768,3.1751,3.1687,3.1668,3.1637,3.1634,3.1421,3.142,3.1408,0,0,0,3.2101,3.2117,3.2055,3.207,3.1952,3.1857,3.1944,3.1763,3.1742,3.1669,3.1637,3.1632,3.1422,3.142,3.141,3.1397,0,0,0,3.2131,3.212,3.2097,3.2071,3.1997,3.1859,3.1831,3.1758,3.173,3.164,3.1631,3.1422,3.1421,3.1412,3.14,3.1346,0,0,0,3.2169,3.2088,3.2097,3.1998,3.1999,3.1856,3.1832,3.1723,3.1644,3.1635,3.1422,3.142,3.1413,3.1402,3.1348,3.1305,3.129,0,0,3.2081,3.2078,3.2018,3.2021,3.1884,3.188,3.1738,3.1639,3.1603,3.1481,3.1476,3.141,3.14,3.1346,3.12,3.1188,0,0,0,3.1999,3.1956,3.1914,3.1842,3.1766,3.1698,3.1619,3.1581,3.1477,3.1548,3.1375,3.1369,3.1336,3.1314,3.1304,3.1272,3.1412,3.1412,3.1412,3.1912,3.1875,3.1771,3.1712,3.1641,3.156,3.1497,3.1432,3.1412,3.1372,3.1335,3.1251,3.1226,3.1219,3.1187,3.131,3.131,3.131,3.131,3.1779,3.1711,3.1688,3.158,3.1538,3.1445,3.1361,3.135,3.1254,3.1276,3.1245,3.1272,3.1207,3.1177,3.1309,3.1309,3.1309,3.1309,3.131,3.1717,3.1678,3.1636,3.1527,3.1446,3.1386,3.1296,3.126,3.1226,3.1195,3.1151,3.1151,3.1144,3.1177,3.1177,3.1177,3.1176,3.1176,3.1176,3.1668,3.1622,3.1552,3.1465,3.1413,3.1339,3.1255,3.1201,3.1132,3.1112,3.1112,3.1094,3.121,3.1239,3.1171,3.1172,3.1173,3.1173,3.1173,3.1544,3.1567,3.146,3.1408,3.13,3.122,3.1177,3.107,3.102,3.0975,3.0963,3.1056,3.1049,3.1057,3.108,3.0975,3.0975,3.0975,3.0975,3.149,3.1485,3.1366,3.1285,3.1201,3.1151,3.1024,3.0956,3.0889,3.0854,3.0864,3.0893,3.0902,3.0889,3.09,3.0921,3.0778,3.0778,3.0778,3.1411,3.1395,3.1297,3.1236,3.1149,3.1073,3.0952,3.0855,3.0783,3.0769,3.0825,3.0834,3.0879,3.0897,3.0883,3.0901,3.0939,0,0]}]]